Location: Chequamegon National Forest
(46.1070°N, 90.8420°W)
Time: 07:25:23
(UTC-05:00)

Amateur Radio Satellites - All Passes

Search period start: 01 November 2014 06:55
Search period end: 02 November 2014 05:55
Location: Chequamegon National Forest, 46.1070°N, 90.8420°W

Satellite Date Start Highest point End Downlink Frequencies (MHz)
Time Altitude Azimuth
Hamsat 01 Nov 07:01:17 07:05:31 87° 103° (ESE) 07:09:47 145.90 MHz
SO-67 01 Nov 07:20:04 07:22:22 17° 92° (E) 07:24:40 435.3500 MHz FM
Saudisat 1A 01 Nov 07:37:19 07:41:04 27° 320° (NW) 07:44:50 436.775 MHz
STRAND 1 01 Nov 07:58:11 08:02:36 29° 265° (W) 08:07:03 ?
RS-15 01 Nov 08:00:47 08:10:23 35° 253° (WSW) 08:20:21 29.354 - 29.394 USB, Beacon 29.352 USB
MaSat-1 01 Nov 08:06:11 08:08:19 25° 249° (WSW) 08:10:20 437.345 MHz
JAS-2 01 Nov 08:15:35 08:22:11 31° 301° (WNW) 08:28:43 435.800 - 435.900 CW/SSB, 435.910 FM
HO-68 01 Nov 08:21:08 08:23:35 12° 84° (E) 08:26:02 435.675 MHz FM
AO-7 01 Nov 08:37:47 08:41:51 15° 322° (NW) 08:45:55 29.400 - 29.500 MHz
Hamsat 01 Nov 08:39:38 08:40:49 11° 301° (WNW) 08:42:00 145.90 MHz
SO-67 01 Nov 08:52:20 08:55:26 32° 289° (WNW) 08:58:31 435.3500 MHz FM
Sapphire 01 Nov 09:38:32 09:42:20 19° 35° (NE) 09:46:08 437.095 MHz 1200 baud AX-25 AFSK
Oscar 11 01 Nov 09:46:51 09:49:29 16° 90° (E) 09:52:08 145.825 FM, Beacon 2401.500 USB
PCSat 01 Nov 09:59:50 10:04:20 25° 41° (NE) 10:08:48 145.825 MHz
KITSAT 1 01 Nov 10:00:08 10:06:32 27° 105° (ESE) 10:12:56 435.175 FM
SO-50 01 Nov 10:03:14 10:03:51 10° 106° (ESE) 10:04:28 436.795 FM
HO-68 01 Nov 10:05:28 10:12:39 66° 104° (ESE) 10:19:47 435.675 MHz FM
FUNcube-1 01 Nov 10:07:41 10:08:17 10° 87° (E) 10:08:53 145.950 - 145.970 MHz USB
ISS 01 Nov 10:26:23 10:29:32 42° 144° (SE) 10:32:43 145.800 FM
UKube-1 01 Nov 10:47:31 10:51:53 66° 102° (ESE) 10:56:12 145.840 MHz, 145.915 MHz
ZACube-1 01 Nov 10:58:34 11:02:29 37° 97° (E) 11:06:20 437.345 MHz
Sapphire 01 Nov 11:21:12 11:26:40 78° 57° (ENE) 11:32:06 437.095 MHz 1200 baud AX-25 AFSK
Oscar 11 01 Nov 11:21:47 11:26:01 54° 288° (WNW) 11:30:13 145.825 FM, Beacon 2401.500 USB
SO-50 01 Nov 11:39:02 11:43:32 80° 125° (SE) 11:48:13 436.795 FM
FUNcube-1 01 Nov 11:41:02 11:45:15 77° 285° (WNW) 11:49:23 145.950 - 145.970 MHz USB
PCSat 01 Nov 11:42:50 11:48:15 69° 241° (WSW) 11:53:37 145.825 MHz
KITSAT 1 01 Nov 11:53:04 12:01:09 78° 306° (NW) 12:09:17 435.175 FM
HO-68 01 Nov 11:53:52 11:59:52 30° 303° (WNW) 12:05:50 435.675 MHz FM
Oscar 16 01 Nov 12:02:31 12:05:06 14° 56° (NE) 12:07:40 437.025 USB, Beacon 2401.1428
ISS 01 Nov 12:03:02 12:06:14 44° 343° (NNW) 12:09:28 145.800 FM
JAS-1B 01 Nov 12:06:30 12:09:55 17° 53° (NE) 12:13:26 435.800 - 435.900 CW/SSB
UOSAT-12 01 Nov 12:18:22 12:22:00 23° 113° (ESE) 12:25:41 437.025 FM, 437.400 FM
UKube-1 01 Nov 12:25:01 12:27:34 15° 300° (WNW) 12:30:05 145.840 MHz, 145.915 MHz
AO-Echo 01 Nov 12:29:37 12:31:49 13° 55° (NE) 12:34:03 ?
ZACube-1 01 Nov 12:35:26 12:38:41 22° 295° (WNW) 12:41:54 437.345 MHz
Uribyol 2 01 Nov 12:37:36 12:39:59 13° 55° (NE) 12:42:22 436.500 FM
Saudisat 1A 01 Nov 12:42:28 12:45:27 17° 33° (NNE) 12:48:26 436.775 MHz
ITAMSAT 1 01 Nov 12:45:23 12:48:09 15° 56° (NE) 12:50:55 435.822 SSB
Oscar 19 01 Nov 12:51:59 12:56:34 34° 66° (ENE) 13:01:09 437.125 CW, 437.150 USB
Sapphire 01 Nov 13:06:00 13:09:26 17° 255° (WSW) 13:12:51 437.095 MHz 1200 baud AX-25 AFSK
SO-50 01 Nov 13:21:12 13:24:41 21° 326° (NW) 13:28:14 436.795 FM
AO-27 01 Nov 13:30:56 13:35:35 34° 65° (ENE) 13:40:15 436.795 MHz FM
Oscar 16 01 Nov 13:38:32 13:43:41 86° 75° (ENE) 13:48:52 437.025 USB, Beacon 2401.1428
ISS 01 Nov 13:40:25 13:43:26 30° 3° (N) 13:46:27 145.800 FM
KITSAT 1 01 Nov 13:51:12 13:57:55 28° 331° (NNW) 14:04:39 435.175 FM
Gurwin Techsat 1B 01 Nov 13:52:45 13:57:15 29° 64° (ENE) 14:01:47 435.225 FM
JAS-1B 01 Nov 13:54:08 13:59:50 82° 255° (WSW) 14:05:41 435.800 - 435.900 CW/SSB
UOSAT-12 01 Nov 13:57:15 14:01:49 53° 312° (NW) 14:06:29 437.025 FM, 437.400 FM
TMSAT-1 01 Nov 13:58:43 14:02:57 25° 62° (ENE) 14:07:13 436.925 FM
AO-7 01 Nov 14:03:07 14:08:31 20° 44° (NE) 14:13:56 29.400 - 29.500 MHz
AO-Echo 01 Nov 14:04:39 14:09:41 78° 74° (ENE) 14:14:54 ?
Uribyol 2 01 Nov 14:13:24 14:18:37 79° 73° (ENE) 14:23:52 436.500 FM
Saudisat 1A 01 Nov 14:21:14 14:25:42 84° 53° (NE) 14:30:07 436.775 MHz
ITAMSAT 1 01 Nov 14:21:39 14:26:52 87° 74° (ENE) 14:32:09 435.822 SSB
Oscar 19 01 Nov 14:31:13 14:35:52 34° 264° (W) 14:40:33 437.125 CW, 437.150 USB
AO-27 01 Nov 15:10:16 15:15:03 36° 263° (W) 15:19:52 436.795 MHz FM
ISS 01 Nov 15:17:13 15:20:32 60° 23° (NNE) 15:23:51 145.800 FM
Oscar 16 01 Nov 15:21:24 15:23:43 13° 272° (W) 15:26:03 437.025 USB, Beacon 2401.1428
Gurwin Techsat 1B 01 Nov 15:32:00 15:37:02 43° 262° (W) 15:42:07 435.225 FM
TMSAT-1 01 Nov 15:37:25 15:42:34 51° 260° (W) 15:47:46 436.925 FM
UOSAT-12 01 Nov 15:40:27 15:43:02 14° 334° (NNW) 15:45:38 437.025 FM, 437.400 FM
AO-Echo 01 Nov 15:46:22 15:49:06 15° 273° (W) 15:51:53 ?
JAS-1B 01 Nov 15:50:45 15:51:40 10° 276° (W) 15:52:36 435.800 - 435.900 CW/SSB
KITSAT 1 01 Nov 15:51:19 15:56:32 18° 0° (N) 16:01:45 435.175 FM
AO-7 01 Nov 15:51:43 15:59:54 70° 66° (ENE) 16:08:08 29.400 - 29.500 MHz
Uribyol 2 01 Nov 15:55:49 15:58:42 15° 271° (W) 16:01:36 436.500 FM
Uosat F 01 Nov 15:57:31 16:02:14 42° 68° (ENE) 16:06:59 435.120 FM
Saudisat 1A 01 Nov 16:02:42 16:04:37 13° 251° (WSW) 16:06:31 436.775 MHz
ITAMSAT 1 01 Nov 16:04:39 16:07:04 13° 272° (W) 16:09:30 435.822 SSB
JAS-2 01 Nov 16:44:29 16:50:31 41° 63° (ENE) 16:57:15 435.800 - 435.900 CW/SSB, 435.910 FM
ISS 01 Nov 16:54:13 16:57:02 26° 221° (SW) 16:59:51 145.800 FM
Uosat F 01 Nov 17:36:57 17:41:10 27° 266° (W) 17:45:25 435.120 FM
AO-7 01 Nov 17:46:22 17:53:19 29° 266° (W) 18:00:19 29.400 - 29.500 MHz
KITSAT 1 01 Nov 17:48:18 17:55:06 28° 30° (NNE) 18:01:52 435.175 FM
Hamsat 01 Nov 17:56:46 18:00:57 85° 76° (ENE) 18:05:09 145.90 MHz
OPAL 01 Nov 18:06:54 18:11:34 40° 100° (E) 18:16:11 ?
SO-50 01 Nov 18:28:07 18:32:14 27° 39° (NE) 18:36:24 436.795 FM
STRAND 1 01 Nov 18:29:21 18:30:22 11° 86° (E) 18:31:22 ?
JAS-2 01 Nov 18:29:25 18:35:30 44° 265° (W) 18:42:22 435.800 - 435.900 CW/SSB, 435.910 FM
HO-68 01 Nov 18:53:03 18:56:56 16° 47° (NE) 19:00:50 435.675 MHz FM
UOSAT-12 01 Nov 19:05:34 19:07:44 13° 24° (NNE) 19:09:53 437.025 FM, 437.400 FM
Oscar 10/S400 01 Nov 19:07:36 19:33:52 50° 188° (S) 02:05:47 145.825 - 145.975 CW/USB, Beacon 145.810 USB
AO-40 01 Nov 19:21:25 22:17:45 30° 198° (SSW) 02:02:37 Beacon 2401.320
SO-67 01 Nov 19:26:35 19:30:00 68° 259° (W) 19:33:27 435.3500 MHz FM
KITSAT 1 01 Nov 19:43:40 19:51:48 81° 55° (NE) 19:59:53 435.175 FM
OPAL 01 Nov 19:46:05 19:50:18 29° 298° (WNW) 19:54:31 ?
STRAND 1 01 Nov 20:05:11 20:10:23 80° 104° (ESE) 20:15:31 ?
SO-50 01 Nov 20:08:22 20:13:07 58° 238° (WSW) 20:17:55 436.795 FM
UKube-1 01 Nov 20:13:33 20:14:03 10° 56° (NE) 20:14:34 145.840 MHz, 145.915 MHz
RS-15 01 Nov 20:15:46 20:25:11 35° 107° (ESE) 20:34:32 29.354 - 29.394 USB, Beacon 29.352 USB
HO-68 01 Nov 20:36:15 20:43:18 64° 68° (ENE) 20:50:25 435.675 MHz FM
Oscar 11 01 Nov 20:44:30 20:47:27 18° 63° (ENE) 20:50:25 145.825 FM, Beacon 2401.500 USB
UOSAT-12 01 Nov 20:44:34 20:49:06 43° 46° (NE) 20:53:34 437.025 FM, 437.400 FM
FUNcube-1 01 Nov 21:05:34 21:07:58 14° 61° (ENE) 21:10:20 145.950 - 145.970 MHz USB
KITSAT 1 01 Nov 21:40:06 21:46:21 26° 255° (WSW) 21:52:35 435.175 FM
MaSat-1 01 Nov 21:42:34 21:45:49 27° 112° (ESE) 21:48:49 437.345 MHz
UKube-1 01 Nov 21:45:07 21:49:28 79° 74° (ENE) 21:53:51 145.840 MHz, 145.915 MHz
STRAND 1 01 Nov 21:45:47 21:48:56 17° 303° (WNW) 21:52:03 ?
ZACube-1 01 Nov 21:57:05 22:01:21 43° 71° (ENE) 22:05:32 437.345 MHz
Oscar 11 01 Nov 22:19:05 22:23:17 50° 260° (W) 22:27:30 145.825 FM, Beacon 2401.500 USB
UOSAT-12 01 Nov 22:25:02 22:29:06 29° 245° (WSW) 22:33:05 437.025 FM, 437.400 FM
HO-68 01 Nov 22:25:31 22:31:29 28° 267° (W) 22:37:31 435.675 MHz FM
RS-15 01 Nov 22:25:40 22:36:38 74° 310° (NW) 22:47:39 29.354 - 29.394 USB, Beacon 29.352 USB
FUNcube-1 01 Nov 22:39:19 22:43:49 72° 258° (WSW) 22:48:14 145.950 - 145.970 MHz USB
MaSat-1 01 Nov 23:18:05 23:21:09 25° 306° (NW) 23:23:58 437.345 MHz
UKube-1 01 Nov 23:24:53 23:26:13 11° 272° (W) 23:27:32 145.840 MHz, 145.915 MHz
ZACube-1 01 Nov 23:34:30 23:37:55 21° 267° (W) 23:41:18 437.345 MHz
RS-15 02 Nov 00:41:31 00:51:08 34° 340° (NNW) 01:00:56 29.354 - 29.394 USB, Beacon 29.352 USB
JAS-1B 02 Nov 01:33:34 01:39:37 27° 94° (E) 01:46:29 435.800 - 435.900 CW/SSB
Oscar 16 02 Nov 01:48:14 01:52:26 25° 93° (E) 01:56:36 437.025 USB, Beacon 2401.1428
Sapphire 02 Nov 01:05:37 01:10:40 42° 114° (ESE) 01:15:46 437.095 MHz 1200 baud AX-25 AFSK
AO-Echo 02 Nov 01:10:01 01:14:10 23° 91° (E) 01:18:15 ?
Uribyol 2 02 Nov 01:24:19 01:28:25 23° 93° (E) 01:32:28 436.500 FM
PCSat 02 Nov 01:26:42 01:32:04 67° 118° (ESE) 01:37:28 145.825 MHz
ITAMSAT 1 02 Nov 01:32:34 01:36:53 26° 94° (E) 01:41:10 435.822 SSB
Oscar 19 02 Nov 01:39:30 01:44:38 69° 102° (ESE) 01:49:44 437.125 CW, 437.150 USB
RS-15 02 Nov 01:58:10 02:07:40 32° 15° (NNE) 02:17:24 29.354 - 29.394 USB, Beacon 29.352 USB
AO-27 02 Nov 02:20:06 02:25:20 68° 102° (ESE) 02:30:31 436.795 MHz FM
JAS-1B 02 Nov 02:23:32 02:30:33 70° 289° (WNW) 02:38:58 435.800 - 435.900 CW/SSB
Oscar 16 02 Nov 02:27:06 02:31:59 46° 291° (WNW) 02:36:52 437.025 USB, Beacon 2401.1428
Gurwin Techsat 1B 02 Nov 02:45:13 02:50:31 63° 101° (ESE) 02:55:46 435.225 FM
AO-Echo 02 Nov 02:48:02 02:53:15 54° 290° (WNW) 02:58:22 ?
OPAL 02 Nov 02:48:07 02:51:05 16° 55° (NE) 02:54:01 ?
Sapphire 02 Nov 02:49:12 02:54:11 36° 314° (NW) 02:59:12 437.095 MHz 1200 baud AX-25 AFSK
TMSAT-1 02 Nov 02:50:29 02:55:41 53° 100° (E) 03:00:51 436.925 FM
AO-7 02 Nov 02:51:55 02:57:15 18° 88° (E) 03:02:33 29.400 - 29.500 MHz
Uribyol 2 02 Nov 03:03:08 03:08:10 51° 291° (WNW) 03:13:10 436.500 FM
PCSat 02 Nov 03:11:28 03:15:58 26° 319° (NW) 03:20:29 145.825 MHz
ITAMSAT 1 02 Nov 03:11:36 03:16:35 46° 292° (WNW) 03:21:32 435.822 SSB
Oscar 19 02 Nov 03:20:00 03:23:27 19° 301° (WNW) 03:26:53 437.125 CW, 437.150 USB
Saudisat 1A 02 Nov 03:33:09 03:34:25 11° 108° (ESE) 03:35:41 436.775 MHz
AO-27 02 Nov 04:00:41 04:04:20 20° 301° (WNW) 04:07:59 436.795 MHz FM
RS-15 02 Nov 04:11:39 04:22:42 64° 46° (NE) 04:34:10 29.354 - 29.394 USB, Beacon 29.352 USB
JAS-1B 02 Nov 04:16:10 04:20:15 17° 307° (NW) 04:24:41 435.800 - 435.900 CW/SSB
OPAL 02 Nov 04:24:13 04:29:19 85° 253° (WSW) 04:34:23 ?
Gurwin Techsat 1B 02 Nov 04:26:07 04:30:02 21° 300° (WNW) 04:33:56 435.225 FM
TMSAT-1 02 Nov 04:31:04 04:35:16 25° 298° (WNW) 04:39:28 436.925 FM
JAS-2 02 Nov 04:35:31 04:42:28 33° 91° (E) 04:49:10 435.800 - 435.900 CW/SSB, 435.910 FM
Sapphire 02 Nov 04:37:35 04:39:17 11° 337° (NNW) 04:41:00 437.095 MHz 1200 baud AX-25 AFSK
Uosat F 02 Nov 04:40:56 04:46:01 78° 104° (ESE) 04:51:03 435.120 FM
Hamsat 02 Nov 04:41:30 04:43:23 13° 89° (E) 04:45:16 145.90 MHz
AO-7 02 Nov 04:42:53 04:51:16 82° 108° (ESE) 04:59:38 29.400 - 29.500 MHz
STRAND 1 02 Nov 04:46:08 04:50:03 23° 61° (ENE) 04:53:59 ?
Saudisat 1A 02 Nov 05:08:52 05:13:15 88° 126° (SE) 05:17:42 436.775 MHz
